sat.trackr.live / text

‹ back to catalog

STARLINK-35614

NORAD 66164 · 2025-240U

PAYLOAD ACTIVE UNKNOWN

§ Identity

Operator
Country
US
Launch date
2025-10-25
Launch site
AFWTR
Launch vehicle
Mass (kg)
RCS (m²)

Purposes: comms

External: N2YO · Heavens-Above · Gunter

§ Orbital elements

Epoch: 2026-05-25T02:03:35.774208Z

Period
93.85 min
Inclination
53.1588°
Eccentricity
0.0001014
Mean motion
15.34405647 rev/d
Perigee alt
462.0 km
Apogee alt
463.4 km
Semi-major
6,840.8 km
B*
8.8730e-4
RAAN
67.3392°
Arg perigee
78.2830°
Mean anomaly
281.8286°
Rev number
3,369

§ Raw data

STARLINK-356141 66164U 25240U   26145.08583072  .00029727  00000+0  88730-3 0  99922 66164  53.1588  67.3392 0001014  78.2830 281.8286 15.34405647 33694

JSON: /api/v1/satellites/66164 · /tle

For live sub-satellite position, see the globe view (requires WebGL).

§ Visibility from observer

Set your observer location to see the next 7 days of passes ≥ 10°. The values pass through the URL so the page stays shareable.

No JS? Fill the form by hand. The geolocation button needs JavaScript.